Dubrovnik, Croatia

5:04 AM CEST on August 22, 2018 (GMT +0200)
Cilipi

Weather History for LDDU - December, 2017

Change the Weather History Date:

Wednesday, December 20, 2017

  Actual Average (LYTV) Record (LYTV)
Temperature  
Mean Temperature 39 °F -  
Max Temperature 45 °F 52 °F 64 °F (1999)
Min Temperature 33 °F 35 °F 24 °F (2005)
Degree Days  
Heating Degree Days 26    
Moisture  
Dew Point 17 °F    
Average Humidity 40    
Maximum Humidity 49    
Minimum Humidity 24    
Precipitation  
Precipitation 0.00 in - - ()
Sea Level Pressure  
Sea Level Pressure 30.37 in    
Wind  
Wind Speed 15 mph ()    
Max Wind Speed 26 mph    
Max Gust Speed 37 mph    
Visibility 11.4 miles    
Events      
Averages and records for this station are not official NWS values.
T = Trace of Precipitation, MM = Missing Value Source: Averaged Metar Reports

Daily Weather History Graph

Daily Weather History Graph

Search for Another Location

Airport or City:

Astronomy

Dec. 20, 2017 Rise Set
Actual Time 7:12 AM CET 4:16 PM CET
Civil Twilight 6:40 AM CET 4:48 PM CET
Nautical Twilight 6:05 AM CET 5:23 PM CET
Astronomical Twilight 5:30 AM CET 5:58 PM CET
Moon 8:35 AM CET (12/20) 6:21 PM CET (12/20)
Length of Visible Light 10h 07m
Length of Day
9h 03m
Waxing Crescent, 4% of the Moon is Illuminated
Dec 20
Waxing Crescent
Dec 26
First Quarter
Jan 2
Full
Jan 8
Last Quarter
Jan 17
New

Hourly Weather History & Observations

Time (CET) Temp. Windchill Dew Point Humidity Pressure Visibility Wind Dir Wind Speed Gust Speed Precip Events Conditions
12:00 AM 35.6 °F 25.2 °F 15.8 °F 44% 30.39 in - North 18.4 mph - N/A   Clear
12:30 AM 35.6 °F 23.7 °F 15.8 °F 44% 30.39 in - North 24.2 mph 35.7 mph N/A   Clear
1:00 AM 36 °F - 16 °F 29% 30.42 in 19 mi NNE 24.6 mph - -  
1:00 AM 35.6 °F 23.4 °F 15.8 °F 44% 30.39 in - NNE 25.3 mph - N/A   Clear
1:30 AM 35.6 °F 23.7 °F 15.8 °F 44% 30.39 in - NNE 24.2 mph - N/A   Clear
2:00 AM 35.6 °F 24.5 °F 15.8 °F 44% 30.39 in - NNE 20.7 mph - N/A   Clear
2:30 AM 35.6 °F 24.0 °F 14.0 °F 41% 30.36 in - NNE 23.0 mph - N/A   Clear
3:00 AM 35.6 °F 25.5 °F 14.0 °F 41% 30.36 in - NNE 17.3 mph - N/A   Clear
3:30 AM 35.6 °F 25.9 °F 14.0 °F 41% 30.36 in - NNE 16.1 mph - N/A   Clear
4:00 AM 36 °F - 14 °F 26% 30.40 in 19 mi NNE 13.4 mph - -  
4:00 AM 35.6 °F 26.6 °F 14.0 °F 41% 30.36 in - NNE 13.8 mph - N/A   Clear
4:30 AM 35.6 °F 26.2 °F 14.0 °F 41% 30.36 in - NNE 15.0 mph - N/A   Clear
5:00 AM 33.8 °F 23.2 °F 12.2 °F 41% 30.36 in - NNE 17.3 mph - N/A   Clear
5:30 AM 33.8 °F 23.2 °F 12.2 °F 41% 30.36 in - NNE 17.3 mph - N/A   Clear
6:00 AM 33.8 °F 23.5 °F 12.2 °F 41% 30.36 in - NNE 16.1 mph - N/A   Clear
6:30 AM 33.8 °F 24.8 °F 14.0 °F 44% 30.36 in - NE 12.7 mph - N/A   Clear
7:00 AM 35 °F - 14 °F 28% 30.40 in 19 mi NE 13.4 mph - -   Clear
7:00 AM 33.8 °F 24.8 °F 14.0 °F 44% 30.36 in - NE 12.7 mph - N/A   Clear
7:30 AM 35.6 °F 28.0 °F 15.8 °F 44% 30.36 in - NE 10.4 mph - N/A   Clear
8:00 AM 35.6 °F 27.5 °F 15.8 °F 44% 30.36 in 6.2 mi NE 11.5 mph - N/A   Partly Cloudy
8:30 AM 37.4 °F 31.4 °F 19.4 °F 48% 30.36 in 6.2 mi ENE 8.1 mph - N/A   Partly Cloudy
9:00 AM 39.2 °F 32.0 °F 17.6 °F 42% 30.39 in - NNE 11.5 mph - N/A   Clear
9:30 AM 41.0 °F 35.2 °F 17.6 °F 39% 30.39 in - NE 9.2 mph - N/A   Clear
10:00 AM 42 °F - 20 °F 28% 30.42 in 19 mi NNE 8.9 mph - -   Scattered Clouds
10:00 AM 42.8 °F 38.0 °F 19.4 °F 39% 30.39 in 6.2 mi NE 8.1 mph - N/A   Partly Cloudy
10:30 AM 42.8 °F 38.6 °F 23.0 °F 46% 30.39 in 6.2 mi East 6.9 mph - N/A   Partly Cloudy
11:00 AM 44.6 °F 40.7 °F 23.0 °F 43% 30.39 in 6.2 mi East 6.9 mph - N/A   Partly Cloudy
11:30 AM 44.6 °F 40.7 °F 24.8 °F 46% 30.36 in 6.2 mi East 6.9 mph - N/A   Partly Cloudy
12:00 PM 44.6 °F 40.2 °F 26.6 °F 49% 30.36 in 6.2 mi SE 8.1 mph - N/A   Partly Cloudy
12:30 PM 44.6 °F 40.7 °F 24.8 °F 46% 30.36 in 6.2 mi SSE 6.9 mph - N/A   Partly Cloudy
1:00 PM 45 °F - 25 °F 33% 30.38 in 19 mi South 6.7 mph - -   Scattered Clouds
1:00 PM 44.6 °F 40.2 °F 24.8 °F 46% 30.36 in 6.2 mi South 8.1 mph - N/A   Partly Cloudy
1:30 PM 44.6 °F 40.2 °F 24.8 °F 46% 30.36 in 6.2 mi SSW 8.1 mph - N/A   Partly Cloudy
1:59 PM 45 °F - 25 °F 33% 30.38 in 19 mi South 6.7 mph - -   Scattered Clouds
2:00 PM 42.8 °F 39.3 °F 23.0 °F 46% 30.33 in 6.2 mi South 5.8 mph - N/A   Partly Cloudy
3:00 PM 44.6 °F 42.2 °F 24.8 °F 46% 30.33 in 6.2 mi WSW 4.6 mph - N/A   Partly Cloudy
3:30 PM 42.8 °F 41.1 °F 23.0 °F 46% 30.33 in 6.2 mi SSW 3.5 mph - N/A   Partly Cloudy
4:00 PM 42 °F - 27 °F 42% 30.37 in 19 mi SSW 2.2 mph - -   Clear
4:00 PM 42.8 °F - 24.8 °F 49% 30.33 in - SSW 1.2 mph - N/A   Clear
4:30 PM 39.2 °F 34.2 °F 17.6 °F 42% 30.33 in - North 6.9 mph - N/A   Clear
5:00 PM 39.2 °F 33.0 °F 14.0 °F 36% 30.33 in - NNE 9.2 mph - N/A   Clear
5:30 PM 39.2 °F 30.8 °F 14.0 °F 36% 30.33 in - NNE 15.0 mph - N/A   Clear
6:00 PM 39.2 °F 29.6 °F 14.0 °F 36% 30.36 in - NNE 19.6 mph - N/A   Clear
6:30 PM 37.4 °F 27.8 °F 14.0 °F 38% 30.36 in - NNE 17.3 mph - N/A   Clear
7:00 PM 37 °F - 13 °F 24% 30.39 in 19 mi NNE 22.4 mph - -  
7:00 PM 37.4 °F 26.6 °F 14.0 °F 38% 30.36 in - NNE 21.9 mph - N/A   Clear
7:30 PM 35.6 °F 24.5 °F 12.2 °F 38% 30.36 in - NNE 20.7 mph - N/A   Clear
8:00 PM 35.6 °F 24.2 °F 12.2 °F 38% 30.36 in - NNE 21.9 mph - N/A   Clear
8:30 PM 35.6 °F 24.0 °F 12.2 °F 38% 30.36 in - NNE 23.0 mph - N/A   Clear
9:00 PM 35.6 °F 23.7 °F 12.2 °F 38% 30.36 in - NNE 24.2 mph - N/A   Clear
9:30 PM 35.6 °F 23.4 °F 12.2 °F 38% 30.36 in - NNE 25.3 mph - N/A   Clear
10:00 PM 35 °F - 12 °F 24% 30.40 in 19 mi NNE 24.6 mph - -  
10:00 PM 33.8 °F 20.8 °F 12.2 °F 41% 30.36 in - NNE 26.5 mph - N/A   Clear
10:30 PM 33.8 °F 21.0 °F 12.2 °F 41% 30.36 in - NNE 25.3 mph - N/A   Clear
11:00 PM 33.8 °F 21.6 °F 12.2 °F 41% 30.36 in - NNE 23.0 mph - N/A   Clear
11:30 PM 33.8 °F 21.3 °F 12.2 °F 41% 30.36 in - NNE 24.2 mph 36.8 mph N/A   Clear